Погода в Анапском

Россия / Краснодарский край     45°46′58″N   39°28′48″E
темп.,
°C
ветер,
м/с
пор.,
м/с
влажн.,
%
обл.,
%
осадки,
мм/ч
давл.,
гПа
погр.,
м
22 апреля, чт
чт2200:00+9зсз229094 0.0 102129
03:00+8сз2292100 0.0 102223
06:00+7сз2291100 0.0 102226
09:00+12с1174100 0.0 1023357
12:00+16ссв1158100 0.0 10231108
15:00+17з1253100 0.1 10221647
18:00+16зсз226789 0.3 102259
21:00+11ссз3785100 0.7 1023170
23 апреля, пт
пт2300:00+10сз22890 0.0 102319
03:00+8зсз22920 0.0 102316
06:00+8зюз22860 0.0 102418
09:00+13юз23710 0.0 1024477
12:00+16зюз33560 0.0 10231389
15:00+18зюз345124 0.0 10221889
18:00+17ююз1162100 0.0 102012
21:00+13юв3363100 0.0 102031
24 апреля, сб
сб2400:00+12зюз2375100 0.0 101962
03:00+10з347787 0.1 1019109
06:00+9ююз248012 0.0 101868
09:00+14юз46640 0.0 1018826
12:00+17зюз68560 0.0 10181725
15:00+17з8115742 0.0 10181860
18:00+14зсз587336 0.1 1019857
21:00+9з3780100 0.1 1021181
25 апреля, вс
вс2500:00+7з3975100 0.0 1021232
03:00+7сз228098 0.0 102238
06:00+5сз227484 0.0 102232
09:00+9с2358100 0.0 1022647
12:00+11ссз2251100 0.0 10211129
15:00+12с1151100 0.0 10201330
18:00+11св1165100 0.0 1019192
21:00+9в2276100 0.1 101955
26 апреля, пн
пн2600:00+8с1283100 0.1 101985
03:00+8ссз2375100 0.1 101999
06:00+6сз2377100 0.0 102085
09:00+10сз2262100 0.0 1020481
12:00+14зсз345030 0.0 10211593
15:00+15сз44495 0.0 10201720
18:00+12сз44673 0.0 1020446
21:00+7сз36820 0.0 1020103